Location: Bletchingley
(51.2333°N, 0.1000°W)
Time: 17:59:09
(UTC+00:00)

Cosmos 1842 - Visible Passes

Search period start: 15 January 2021 00:00
Search period end: 25 January 2021 00:00
Orbit: 520 x 537 km, 82.5° (Epoch: 14 January)

Date Brightness Start Highest point End Pass type
(mag) Time Alt. Az. Time Alt. Az. Time Alt. Az.
15 Jan 6.1 17:48:52 10° W 17:51:00 14° WNW 17:53:07 10° NNW visible
16 Jan 6.0 17:37:40 10° W 17:39:58 15° WNW 17:42:17 10° NNW visible
17 Jan 6.0 17:26:29 10° WSW 17:28:56 16° WNW 17:31:25 10° NNW visible
18 Jan 5.9 17:15:19 10° WSW 17:17:55 17° WNW 17:20:32 10° NNW visible
19 Jan 5.9 17:04:10 10° WSW 17:06:53 18° WNW 17:09:38 10° NNW visible
